GFSSW_prec_pwat_123.txt.gz
Precipitable_Water
0.64 0.62 0.59 0.55 0.50 0.48 0.45 0.42 0.40 0.38 0.37 0.36 0.35 0.34 0.34 0.30 0.30 0.38 0.28 0.27 0.29 0.33 0.36 0.47 0.44 0.38 0.41 0.43 0.52 0.53 0.36 0.28 0.32 0.31 0.32 0.36 0.33 0.38 0.36 0.29 0.28 0.29 0.34 0.56 0.69
0.65 0.62 0.57 0.53 0.49 0.46 0.43 0.39 0.37 0.36 0.34 0.33 0.32 0.32 0.31 0.29 0.36 0.31 0.30 0.27 0.22 0.20 0.16 0.26 0.29 0.36 0.35 0.36 0.39 0.40 0.32 0.34 0.42 0.42 0.38 0.40 0.40 0.42 0.41 0.30 0.28 0.28 0.47 0.61 0.67
0.68 0.62 0.55 0.52 0.48 0.43 0.39 0.36 0.36 0.35 0.33 0.32 0.33 0.34 0.35 0.35 0.37 0.36 0.29 0.19 0.16 0.18 0.29 0.32 0.25 0.24 0.26 0.31 0.33 0.36 0.30 0.39 0.42 0.46 0.46 0.44 0.43 0.47 0.43 0.34 0.29 0.28 0.35 0.51 0.54
0.69 0.61 0.55 0.51 0.47 0.41 0.37 0.35 0.35 0.34 0.33 0.35 0.36 0.35 0.35 0.41 0.18 0.28 0.33 0.30 0.27 0.25 0.18 0.15 0.16 0.17 0.17 0.19 0.29 0.26 0.32 0.36 0.39 0.45 0.46 0.44 0.48 0.44 0.47 0.42 0.41 0.35 0.35 0.38 0.45
0.68 0.62 0.54 0.49 0.45 0.40 0.37 0.36 0.35 0.36 0.37 0.39 0.38 0.36 0.35 0.30 0.22 0.38 0.33 0.27 0.29 0.27 0.25 0.24 0.19 0.13 0.11 0.16 0.17 0.18 0.22 0.29 0.34 0.36 0.41 0.44 0.43 0.44 0.44 0.49 0.49 0.43 0.39 0.37 0.36
0.68 0.61 0.54 0.49 0.44 0.39 0.38 0.37 0.37 0.37 0.39 0.40 0.40 0.37 0.32 0.19 0.31 0.30 0.28 0.22 0.22 0.22 0.19 0.20 0.20 0.24 0.17 0.11 0.11 0.16 0.17 0.17 0.19 0.25 0.32 0.36 0.40 0.47 0.43 0.51 0.51 0.47 0.41 0.40 0.39
0.68 0.61 0.54 0.48 0.44 0.40 0.38 0.38 0.39 0.38 0.41 0.38 0.40 0.42 0.29 0.23 0.31 0.28 0.23 0.21 0.20 0.18 0.13 0.15 0.14 0.14 0.17 0.11 0.11 0.12 0.12 0.15 0.16 0.20 0.21 0.29 0.33 0.36 0.44 0.52 0.51 0.52 0.49 0.44 0.42
0.70 0.60 0.56 0.50 0.45 0.42 0.43 0.46 0.47 0.46 0.44 0.48 0.49 0.44 0.23 0.33 0.33 0.22 0.21 0.19 0.17 0.16 0.17 0.18 0.18 0.13 0.16 0.18 0.11 0.09 0.07 0.05 0.07 0.14 0.17 0.23 0.20 0.28 0.41 0.46 0.49 0.52 0.55 0.53 0.46
0.66 0.60 0.55 0.51 0.46 0.46 0.48 0.49 0.46 0.43 0.44 0.47 0.44 0.38 0.24 0.33 0.21 0.21 0.21 0.16 0.15 0.15 0.18 0.17 0.18 0.16 0.17 0.12 0.09 0.10 0.05 0.06 0.05 0.08 0.10 0.13 0.15 0.19 0.31 0.39 0.45 0.48 0.51 0.54 0.54
0.65 0.62 0.54 0.49 0.44 0.45 0.48 0.48 0.46 0.45 0.46 0.46 0.40 0.27 0.27 0.23 0.20 0.17 0.20 0.17 0.16 0.15 0.12 0.14 0.17 0.15 0.15 0.13 0.08 0.09 0.10 0.09 0.08 0.08 0.12 0.13 0.14 0.20 0.29 0.34 0.41 0.48 0.50 0.52 0.55
0.62 0.57 0.50 0.44 0.42 0.47 0.47 0.42 0.32 0.34 0.33 0.19 0.21 0.18 0.20 0.21 0.20 0.18 0.19 0.16 0.16 0.14 0.11 0.13 0.10 0.09 0.11 0.14 0.14 0.13 0.12 0.11 0.10 0.11 0.13 0.11 0.12 0.14 0.22 0.32 0.37 0.44 0.47 0.52 0.54
0.59 0.53 0.48 0.42 0.43 0.45 0.42 0.31 0.30 0.32 0.21 0.26 0.24 0.23 0.22 0.19 0.15 0.17 0.20 0.15 0.13 0.09 0.12 0.12 0.10 0.15 0.17 0.16 0.15 0.14 0.12 0.10 0.12 0.12 0.13 0.11 0.12 0.12 0.15 0.27 0.35 0.33 0.35 0.43 0.49
0.55 0.50 0.45 0.40 0.44 0.44 0.36 0.32 0.37 0.35 0.22 0.25 0.24 0.21 0.16 0.17 0.15 0.16 0.18 0.18 0.12 0.11 0.12 0.13 0.15 0.20 0.18 0.14 0.14 0.14 0.14 0.14 0.14 0.14 0.14 0.12 0.10 0.11 0.12 0.16 0.29 0.33 0.31 0.37 0.41
0.54 0.48 0.41 0.42 0.45 0.45 0.38 0.38 0.37 0.38 0.21 0.21 0.23 0.25 0.19 0.16 0.16 0.19 0.21 0.16 0.14 0.11 0.14 0.15 0.20 0.17 0.13 0.13 0.15 0.13 0.18 0.19 0.17 0.16 0.11 0.14 0.08 0.10 0.11 0.13 0.19 0.28 0.29 0.32 0.38
0.51 0.43 0.39 0.46 0.45 0.38 0.40 0.38 0.37 0.42 0.13 0.25 0.21 0.23 0.18 0.15 0.15 0.17 0.20 0.17 0.13 0.14 0.15 0.15 0.17 0.16 0.13 0.16 0.21 0.20 0.24 0.22 0.21 0.18 0.18 0.13 0.12 0.07 0.11 0.10 0.13 0.17 0.24 0.27 0.31
0.47 0.43 0.45 0.47 0.47 0.43 0.39 0.41 0.42 0.21 0.14 0.17 0.18 0.16 0.14 0.16 0.17 0.19 0.18 0.20 0.19 0.18 0.18 0.18 0.22 0.17 0.18 0.20 0.24 0.26 0.25 0.23 0.20 0.18 0.15 0.14 0.13 0.07 0.10 0.10 0.12 0.18 0.23 0.25 0.27
0.47 0.42 0.46 0.52 0.42 0.50 0.41 0.41 0.21 0.16 0.20 0.16 0.16 0.16 0.13 0.15 0.16 0.17 0.16 0.16 0.14 0.11 0.12 0.13 0.15 0.18 0.21 0.18 0.21 0.26 0.25 0.18 0.14 0.13 0.12 0.16 0.13 0.11 0.14 0.13 0.13 0.20 0.24 0.49 0.38
0.44 0.41 0.49 0.48 0.52 0.43 0.46 0.27 0.15 0.21 0.17 0.20 0.17 0.14 0.12 0.16 0.16 0.16 0.16 0.14 0.19 0.17 0.14 0.13 0.10 0.17 0.19 0.21 0.22 0.24 0.25 0.19 0.14 0.13 0.12 0.15 0.12 0.10 0.15 0.17 0.18 0.23 0.44 0.58 0.54
0.41 0.46 0.47 0.50 0.42 0.44 0.34 0.18 0.20 0.20 0.21 0.17 0.13 0.13 0.15 0.17 0.17 0.16 0.15 0.15 0.17 0.18 0.15 0.15 0.12 0.19 0.19 0.23 0.35 0.31 0.28 0.37 0.26 0.25 0.16 0.17 0.17 0.16 0.14 0.15 0.21 0.25 0.54 0.61 0.78
0.45 0.46 0.47 0.50 0.38 0.42 0.29 0.21 0.23 0.24 0.21 0.17 0.12 0.15 0.14 0.16 0.15 0.15 0.14 0.18 0.18 0.22 0.25 0.20 0.12 0.15 0.18 0.23 0.34 0.34 0.41 0.27 0.26 0.15 0.10 0.13 0.15 0.13 0.18 0.23 0.20 0.24 0.51 0.63 0.69
0.45 0.35 0.48 0.46 0.37 0.32 0.19 0.22 0.25 0.25 0.21 0.16 0.17 0.17 0.17 0.16 0.17 0.15 0.15 0.17 0.21 0.22 0.23 0.20 0.18 0.12 0.17 0.17 0.21 0.27 0.27 0.32 0.34 0.24 0.14 0.11 0.11 0.21 0.23 0.30 0.31 0.31 0.54 0.61 0.69
0.45 0.28 0.53 0.45 0.21 0.28 0.19 0.31 0.27 0.25 0.24 0.20 0.20 0.18 0.17 0.18 0.16 0.15 0.15 0.16 0.23 0.22 0.18 0.22 0.17 0.11 0.13 0.20 0.28 0.30 0.28 0.32 0.24 0.23 0.24 0.16 0.15 0.21 0.30 0.34 0.41 0.57 0.65 0.70 0.79
0.32 0.35 0.51 0.38 0.18 0.24 0.28 0.27 0.26 0.22 0.23 0.23 0.21 0.22 0.22 0.18 0.14 0.17 0.16 0.20 0.19 0.22 0.21 0.21 0.16 0.12 0.12 0.15 0.24 0.24 0.29 0.30 0.33 0.31 0.20 0.15 0.15 0.27 0.40 0.44 0.67 0.67 0.69 0.75 0.78
0.38 0.28 0.34 0.29 0.28 0.29 0.29 0.27 0.24 0.23 0.23 0.24 0.21 0.20 0.18 0.16 0.20 0.18 0.17 0.18 0.19 0.21 0.24 0.23 0.19 0.19 0.14 0.16 0.21 0.22 0.25 0.29 0.31 0.26 0.21 0.17 0.24 0.36 0.41 0.50 0.59 0.74 0.77 0.77 0.80
0.40 0.29 0.33 0.22 0.19 0.25 0.32 0.27 0.23 0.23 0.24 0.21 0.19 0.18 0.17 0.15 0.16 0.16 0.17 0.16 0.15 0.18 0.20 0.18 0.13 0.17 0.21 0.23 0.24 0.25 0.26 0.33 0.33 0.32 0.24 0.25 0.29 0.40 0.48 0.51 0.59 0.67 0.74 0.79 0.78
0.30 0.34 0.35 0.31 0.34 0.25 0.26 0.24 0.24 0.23 0.23 0.21 0.19 0.18 0.18 0.15 0.16 0.14 0.16 0.14 0.12 0.13 0.13 0.16 0.16 0.20 0.16 0.22 0.24 0.24 0.36 0.37 0.39 0.36 0.33 0.34 0.31 0.51 0.56 0.57 0.55 0.61 0.67 0.71 0.74
0.42 0.39 0.35 0.30 0.27 0.26 0.25 0.25 0.23 0.24 0.24 0.22 0.20 0.17 0.14 0.16 0.19 0.19 0.18 0.15 0.13 0.12 0.13 0.20 0.20 0.18 0.14 0.22 0.23 0.27 0.31 0.34 0.37 0.40 0.37 0.28 0.37 0.51 0.50 0.54 0.56 0.60 0.65 0.66 0.67

GFSSW_prec_pwat_126.txt.gz
Precipitable_Water
0.71 0.68 0.66 0.61 0.55 0.50 0.48 0.45 0.41 0.39 0.38 0.36 0.36 0.36 0.34 0.34 0.45 0.41 0.22 0.22 0.23 0.22 0.28 0.30 0.38 0.37 0.37 0.40 0.48 0.50 0.34 0.28 0.31 0.32 0.32 0.41 0.36 0.41 0.45 0.40 0.39 0.34 0.33 0.40 0.62
0.73 0.68 0.64 0.60 0.57 0.53 0.49 0.45 0.40 0.38 0.37 0.35 0.36 0.39 0.38 0.37 0.41 0.28 0.26 0.23 0.19 0.21 0.21 0.20 0.23 0.32 0.28 0.31 0.34 0.33 0.30 0.30 0.37 0.39 0.36 0.41 0.42 0.42 0.40 0.39 0.37 0.37 0.58 0.53 0.63
0.73 0.68 0.64 0.61 0.59 0.54 0.50 0.45 0.40 0.37 0.36 0.34 0.36 0.39 0.39 0.41 0.35 0.33 0.35 0.34 0.29 0.27 0.21 0.21 0.21 0.20 0.21 0.26 0.28 0.28 0.23 0.29 0.32 0.36 0.39 0.39 0.41 0.47 0.41 0.36 0.41 0.39 0.44 0.77 0.67
0.74 0.69 0.65 0.62 0.59 0.54 0.49 0.44 0.40 0.36 0.35 0.36 0.38 0.38 0.40 0.45 0.23 0.35 0.38 0.34 0.33 0.32 0.25 0.21 0.21 0.16 0.13 0.13 0.20 0.16 0.21 0.23 0.26 0.31 0.33 0.32 0.38 0.38 0.42 0.37 0.47 0.46 0.48 0.53 0.79
0.77 0.69 0.66 0.62 0.58 0.52 0.47 0.42 0.38 0.37 0.38 0.39 0.41 0.43 0.41 0.32 0.24 0.33 0.35 0.30 0.28 0.25 0.21 0.20 0.19 0.19 0.15 0.17 0.17 0.14 0.17 0.19 0.20 0.21 0.22 0.24 0.26 0.31 0.35 0.43 0.48 0.50 0.50 0.48 0.50
0.79 0.71 0.65 0.62 0.56 0.51 0.46 0.42 0.38 0.40 0.40 0.42 0.44 0.46 0.39 0.21 0.30 0.31 0.29 0.24 0.21 0.20 0.20 0.20 0.19 0.18 0.14 0.13 0.11 0.11 0.12 0.11 0.12 0.14 0.17 0.18 0.19 0.23 0.24 0.39 0.46 0.49 0.48 0.49 0.49
0.79 0.76 0.66 0.63 0.58 0.50 0.46 0.43 0.41 0.43 0.45 0.48 0.51 0.52 0.36 0.25 0.32 0.32 0.26 0.23 0.22 0.19 0.15 0.17 0.17 0.13 0.13 0.09 0.15 0.13 0.09 0.08 0.06 0.06 0.08 0.13 0.12 0.15 0.21 0.26 0.33 0.45 0.50 0.47 0.49
0.79 0.75 0.71 0.65 0.56 0.51 0.49 0.47 0.48 0.53 0.51 0.52 0.58 0.53 0.33 0.38 0.38 0.27 0.24 0.21 0.21 0.20 0.17 0.18 0.20 0.16 0.15 0.16 0.16 0.12 0.10 0.06 0.07 0.09 0.09 0.09 0.05 0.09 0.15 0.18 0.21 0.28 0.40 0.49 0.47
0.79 0.71 0.66 0.58 0.52 0.49 0.51 0.55 0.52 0.53 0.51 0.53 0.52 0.44 0.29 0.37 0.28 0.24 0.24 0.18 0.18 0.19 0.18 0.20 0.19 0.16 0.17 0.14 0.12 0.12 0.08 0.09 0.08 0.13 0.12 0.12 0.09 0.08 0.11 0.13 0.14 0.20 0.25 0.37 0.48
0.81 0.82 0.72 0.64 0.52 0.46 0.55 0.51 0.53 0.52 0.54 0.54 0.51 0.34 0.34 0.28 0.27 0.22 0.21 0.20 0.17 0.16 0.15 0.15 0.17 0.14 0.15 0.13 0.08 0.10 0.10 0.10 0.09 0.11 0.14 0.10 0.10 0.10 0.11 0.12 0.12 0.15 0.23 0.32 0.40
0.94 0.90 0.72 0.60 0.55 0.55 0.49 0.46 0.39 0.41 0.40 0.28 0.30 0.25 0.25 0.25 0.22 0.20 0.21 0.18 0.17 0.14 0.11 0.14 0.10 0.09 0.13 0.15 0.15 0.14 0.13 0.11 0.11 0.15 0.15 0.13 0.12 0.11 0.11 0.12 0.11 0.12 0.17 0.26 0.38
0.95 0.83 0.67 0.57 0.47 0.49 0.49 0.37 0.37 0.39 0.27 0.31 0.29 0.25 0.26 0.22 0.17 0.19 0.21 0.16 0.14 0.11 0.13 0.12 0.11 0.14 0.16 0.15 0.13 0.12 0.10 0.09 0.11 0.14 0.17 0.15 0.14 0.14 0.14 0.11 0.11 0.11 0.13 0.22 0.38
0.87 0.75 0.63 0.52 0.52 0.49 0.39 0.36 0.43 0.40 0.25 0.30 0.29 0.27 0.20 0.21 0.17 0.18 0.21 0.18 0.13 0.12 0.12 0.11 0.14 0.18 0.16 0.13 0.12 0.11 0.11 0.13 0.14 0.14 0.14 0.15 0.11 0.12 0.13 0.14 0.12 0.11 0.12 0.19 0.34
0.74 0.65 0.54 0.50 0.49 0.51 0.41 0.47 0.43 0.41 0.21 0.23 0.25 0.25 0.22 0.21 0.18 0.21 0.22 0.17 0.15 0.13 0.14 0.13 0.19 0.16 0.14 0.13 0.13 0.09 0.17 0.18 0.15 0.15 0.12 0.18 0.10 0.12 0.13 0.13 0.12 0.11 0.11 0.17 0.30
0.67 0.57 0.52 0.53 0.55 0.45 0.49 0.49 0.43 0.44 0.16 0.29 0.28 0.30 0.22 0.18 0.17 0.19 0.22 0.18 0.15 0.14 0.14 0.13 0.15 0.14 0.11 0.12 0.17 0.15 0.19 0.18 0.19 0.18 0.19 0.14 0.15 0.11 0.13 0.11 0.11 0.10 0.12 0.17 0.25
0.60 0.53 0.50 0.54 0.57 0.57 0.51 0.44 0.44 0.23 0.16 0.23 0.23 0.21 0.18 0.18 0.18 0.19 0.19 0.21 0.21 0.16 0.15 0.14 0.17 0.14 0.14 0.16 0.18 0.19 0.20 0.22 0.21 0.21 0.15 0.12 0.18 0.15 0.14 0.12 0.12 0.12 0.13 0.16 0.20
0.54 0.47 0.50 0.53 0.48 0.56 0.46 0.44 0.24 0.19 0.24 0.20 0.20 0.20 0.17 0.17 0.17 0.18 0.17 0.15 0.13 0.10 0.10 0.11 0.14 0.17 0.19 0.13 0.16 0.19 0.20 0.16 0.13 0.13 0.13 0.19 0.18 0.15 0.17 0.16 0.15 0.15 0.16 0.18 0.20
0.51 0.46 0.48 0.62 0.56 0.56 0.47 0.31 0.19 0.23 0.21 0.23 0.21 0.19 0.14 0.17 0.17 0.18 0.16 0.14 0.17 0.16 0.12 0.09 0.08 0.14 0.17 0.17 0.15 0.17 0.27 0.21 0.14 0.14 0.16 0.22 0.15 0.14 0.17 0.16 0.19 0.19 0.22 0.28 0.44
0.48 0.40 0.48 0.47 0.57 0.49 0.37 0.21 0.18 0.24 0.25 0.21 0.20 0.16 0.17 0.18 0.17 0.17 0.16 0.15 0.16 0.18 0.13 0.11 0.11 0.16 0.16 0.18 0.19 0.21 0.23 0.32 0.25 0.25 0.20 0.20 0.16 0.16 0.16 0.20 0.21 0.27 0.24 0.48 0.68
0.42 0.46 0.42 0.56 0.46 0.45 0.33 0.19 0.25 0.26 0.24 0.21 0.17 0.17 0.16 0.18 0.17 0.16 0.14 0.17 0.17 0.21 0.22 0.17 0.10 0.14 0.15 0.17 0.24 0.27 0.29 0.22 0.24 0.17 0.15 0.17 0.14 0.15 0.18 0.21 0.26 0.28 0.36 0.50 0.91
0.47 0.38 0.47 0.57 0.43 0.38 0.21 0.23 0.25 0.27 0.26 0.22 0.20 0.17 0.18 0.17 0.17 0.15 0.15 0.17 0.20 0.19 0.20 0.18 0.15 0.12 0.13 0.14 0.18 0.23 0.22 0.28 0.29 0.25 0.19 0.15 0.16 0.35 0.35 0.39 0.41 0.46 0.41 0.39 0.83
0.45 0.33 0.55 0.44 0.26 0.28 0.21 0.30 0.29 0.26 0.27 0.24 0.22 0.20 0.18 0.19 0.16 0.16 0.15 0.16 0.20 0.20 0.17 0.19 0.15 0.10 0.10 0.20 0.25 0.26 0.23 0.28 0.22 0.18 0.24 0.25 0.20 0.37 0.35 0.53 0.57 0.61 0.66 0.67 0.76
0.38 0.40 0.56 0.43 0.17 0.21 0.29 0.29 0.27 0.26 0.25 0.22 0.21 0.22 0.22 0.18 0.15 0.17 0.18 0.20 0.19 0.18 0.17 0.19 0.14 0.09 0.08 0.15 0.22 0.20 0.22 0.28 0.32 0.32 0.23 0.20 0.20 0.35 0.38 0.50 0.58 0.66 0.71 0.74 0.79
0.40 0.32 0.37 0.35 0.32 0.26 0.26 0.24 0.25 0.29 0.26 0.25 0.24 0.23 0.20 0.18 0.19 0.18 0.18 0.20 0.20 0.18 0.21 0.21 0.16 0.12 0.10 0.13 0.19 0.19 0.24 0.34 0.34 0.27 0.25 0.24 0.27 0.35 0.40 0.44 0.58 0.61 0.70 0.80 0.81
0.41 0.34 0.33 0.21 0.19 0.30 0.31 0.27 0.24 0.24 0.25 0.25 0.22 0.20 0.18 0.16 0.16 0.15 0.16 0.16 0.16 0.17 0.15 0.16 0.10 0.10 0.15 0.18 0.22 0.24 0.30 0.33 0.31 0.32 0.26 0.29 0.30 0.41 0.49 0.52 0.59 0.64 0.66 0.66 0.71
0.34 0.33 0.35 0.31 0.29 0.25 0.31 0.27 0.27 0.26 0.25 0.22 0.19 0.21 0.20 0.16 0.16 0.12 0.14 0.14 0.12 0.12 0.11 0.12 0.09 0.16 0.14 0.20 0.23 0.25 0.29 0.32 0.34 0.33 0.31 0.31 0.33 0.43 0.56 0.61 0.59 0.62 0.64 0.63 0.67
0.42 0.42 0.36 0.31 0.30 0.24 0.24 0.28 0.24 0.27 0.27 0.28 0.24 0.20 0.17 0.18 0.19 0.19 0.18 0.15 0.13 0.10 0.10 0.15 0.16 0.16 0.11 0.19 0.22 0.24 0.28 0.29 0.33 0.37 0.34 0.25 0.36 0.49 0.54 0.55 0.57 0.60 0.64 0.64 0.66

GFSSW_prec_pwat_129.txt.gz
Precipitable_Water
0.73 0.69 0.68 0.67 0.63 0.59 0.55 0.51 0.47 0.44 0.41 0.40 0.38 0.36 0.38 0.37 0.46 0.43 0.20 0.21 0.19 0.22 0.28 0.32 0.34 0.32 0.33 0.35 0.43 0.45 0.30 0.25 0.28 0.29 0.32 0.42 0.40 0.46 0.46 0.39 0.41 0.42 0.44 0.53 0.69
0.75 0.72 0.68 0.64 0.62 0.59 0.55 0.50 0.47 0.45 0.42 0.40 0.39 0.37 0.37 0.38 0.40 0.30 0.33 0.30 0.27 0.25 0.19 0.17 0.21 0.26 0.25 0.28 0.31 0.31 0.27 0.27 0.35 0.36 0.33 0.37 0.37 0.40 0.39 0.37 0.37 0.40 0.46 0.52 0.67
0.78 0.75 0.69 0.64 0.61 0.59 0.55 0.50 0.47 0.45 0.43 0.41 0.42 0.40 0.39 0.42 0.34 0.32 0.40 0.34 0.39 0.36 0.25 0.24 0.23 0.21 0.19 0.21 0.25 0.26 0.20 0.25 0.26 0.28 0.29 0.28 0.29 0.35 0.35 0.33 0.40 0.38 0.41 0.48 0.53
0.83 0.77 0.72 0.65 0.59 0.57 0.55 0.51 0.49 0.46 0.45 0.42 0.42 0.42 0.42 0.43 0.22 0.35 0.42 0.40 0.38 0.35 0.26 0.22 0.20 0.17 0.15 0.15 0.18 0.16 0.18 0.19 0.20 0.21 0.20 0.19 0.23 0.22 0.26 0.30 0.42 0.43 0.43 0.46 0.52
0.81 0.79 0.76 0.70 0.63 0.56 0.53 0.51 0.49 0.47 0.45 0.44 0.42 0.43 0.39 0.31 0.27 0.34 0.35 0.36 0.31 0.27 0.23 0.21 0.19 0.18 0.14 0.16 0.16 0.14 0.15 0.16 0.17 0.16 0.16 0.17 0.16 0.17 0.17 0.23 0.32 0.44 0.47 0.45 0.48
0.88 0.81 0.77 0.71 0.70 0.60 0.53 0.49 0.48 0.48 0.46 0.44 0.46 0.47 0.38 0.27 0.35 0.34 0.31 0.28 0.24 0.22 0.21 0.21 0.20 0.19 0.14 0.14 0.13 0.13 0.12 0.11 0.10 0.08 0.08 0.07 0.08 0.10 0.11 0.16 0.18 0.28 0.39 0.46 0.45
0.89 0.81 0.76 0.73 0.66 0.64 0.54 0.47 0.48 0.47 0.49 0.48 0.56 0.53 0.39 0.29 0.38 0.36 0.32 0.26 0.23 0.22 0.18 0.21 0.21 0.17 0.15 0.13 0.17 0.15 0.11 0.10 0.09 0.10 0.10 0.11 0.05 0.05 0.08 0.10 0.10 0.14 0.21 0.31 0.42
0.84 0.84 0.79 0.73 0.66 0.64 0.58 0.47 0.48 0.47 0.52 0.55 0.65 0.58 0.34 0.42 0.41 0.32 0.29 0.24 0.26 0.25 0.21 0.21 0.21 0.19 0.17 0.18 0.16 0.12 0.12 0.08 0.11 0.11 0.12 0.12 0.05 0.07 0.10 0.11 0.09 0.09 0.12 0.18 0.26
0.81 0.81 0.77 0.74 0.66 0.60 0.53 0.50 0.49 0.58 0.65 0.69 0.61 0.51 0.35 0.45 0.33 0.29 0.27 0.23 0.22 0.23 0.24 0.24 0.21 0.17 0.20 0.14 0.10 0.12 0.08 0.09 0.10 0.14 0.14 0.14 0.09 0.08 0.14 0.12 0.11 0.10 0.09 0.10 0.16
0.84 0.83 0.78 0.71 0.69 0.59 0.52 0.50 0.52 0.61 0.59 0.60 0.56 0.39 0.40 0.33 0.35 0.30 0.29 0.25 0.22 0.20 0.18 0.18 0.17 0.15 0.15 0.13 0.08 0.10 0.10 0.11 0.10 0.12 0.13 0.13 0.11 0.12 0.14 0.15 0.12 0.13 0.12 0.11 0.10
0.92 0.80 0.81 0.79 0.77 0.76 0.64 0.46 0.42 0.38 0.42 0.35 0.36 0.33 0.32 0.36 0.33 0.28 0.27 0.23 0.20 0.17 0.12 0.15 0.12 0.11 0.14 0.15 0.15 0.14 0.12 0.10 0.10 0.12 0.11 0.12 0.11 0.11 0.13 0.14 0.12 0.11 0.12 0.12 0.12
0.85 0.83 0.86 0.89 0.75 0.70 0.57 0.44 0.43 0.45 0.37 0.41 0.35 0.33 0.33 0.29 0.22 0.23 0.26 0.19 0.16 0.14 0.15 0.13 0.13 0.17 0.18 0.17 0.15 0.13 0.10 0.08 0.09 0.13 0.13 0.12 0.09 0.09 0.11 0.11 0.12 0.12 0.10 0.11 0.12
0.85 0.92 0.94 0.78 0.68 0.63 0.53 0.43 0.47 0.42 0.27 0.32 0.33 0.31 0.27 0.27 0.22 0.22 0.24 0.20 0.16 0.15 0.15 0.13 0.16 0.20 0.16 0.13 0.11 0.11 0.09 0.09 0.11 0.11 0.12 0.15 0.10 0.10 0.12 0.15 0.14 0.14 0.15 0.11 0.13
0.91 0.92 0.86 0.68 0.59 0.54 0.41 0.46 0.42 0.41 0.25 0.27 0.30 0.29 0.25 0.24 0.21 0.24 0.24 0.20 0.18 0.15 0.16 0.16 0.21 0.16 0.13 0.11 0.13 0.09 0.13 0.13 0.12 0.11 0.09 0.15 0.10 0.13 0.14 0.17 0.17 0.17 0.17 0.13 0.12
0.95 0.92 0.75 0.67 0.56 0.44 0.46 0.48 0.46 0.45 0.21 0.31 0.30 0.35 0.26 0.21 0.23 0.22 0.26 0.21 0.17 0.17 0.16 0.15 0.15 0.12 0.11 0.12 0.13 0.10 0.14 0.13 0.13 0.12 0.16 0.10 0.17 0.14 0.22 0.20 0.20 0.21 0.20 0.17 0.13
0.95 0.83 0.70 0.58 0.60 0.54 0.52 0.45 0.49 0.25 0.21 0.30 0.30 0.25 0.23 0.24 0.22 0.24 0.23 0.24 0.25 0.19 0.18 0.15 0.17 0.16 0.14 0.14 0.14 0.15 0.14 0.13 0.15 0.17 0.11 0.15 0.18 0.18 0.19 0.20 0.22 0.22 0.19 0.17 0.14
0.90 0.70 0.65 0.59 0.44 0.57 0.50 0.38 0.22 0.20 0.28 0.24 0.24 0.24 0.21 0.20 0.21 0.21 0.20 0.19 0.15 0.11 0.11 0.15 0.15 0.16 0.15 0.11 0.13 0.13 0.12 0.12 0.10 0.11 0.09 0.18 0.20 0.20 0.25 0.26 0.23 0.21 0.19 0.18 0.17
0.84 0.69 0.62 0.57 0.61 0.55 0.47 0.31 0.19 0.24 0.25 0.26 0.23 0.21 0.18 0.21 0.21 0.21 0.19 0.17 0.19 0.17 0.13 0.10 0.08 0.14 0.15 0.12 0.11 0.13 0.18 0.16 0.11 0.12 0.13 0.20 0.17 0.19 0.28 0.39 0.44 0.41 0.30 0.33 0.41
0.66 0.54 0.52 0.58 0.59 0.52 0.36 0.24 0.21 0.27 0.27 0.24 0.21 0.19 0.19 0.21 0.20 0.20 0.19 0.18 0.17 0.19 0.12 0.11 0.11 0.17 0.15 0.15 0.15 0.15 0.17 0.24 0.21 0.21 0.18 0.17 0.19 0.23 0.30 0.39 0.49 0.48 0.48 0.48 0.53
0.52 0.51 0.51 0.60 0.57 0.47 0.31 0.20 0.26 0.29 0.29 0.26 0.20 0.21 0.19 0.20 0.19 0.19 0.18 0.20 0.18 0.21 0.21 0.16 0.09 0.14 0.14 0.14 0.19 0.20 0.24 0.17 0.23 0.14 0.12 0.15 0.16 0.18 0.27 0.35 0.41 0.50 0.54 0.59 0.62
0.50 0.41 0.55 0.55 0.52 0.39 0.26 0.25 0.27 0.30 0.28 0.24 0.22 0.21 0.21 0.19 0.20 0.18 0.17 0.20 0.20 0.20 0.20 0.17 0.14 0.11 0.11 0.12 0.15 0.19 0.19 0.23 0.24 0.23 0.16 0.14 0.15 0.27 0.36 0.40 0.39 0.49 0.61 0.67 0.61
0.50 0.36 0.56 0.51 0.30 0.38 0.27 0.27 0.31 0.27 0.28 0.27 0.27 0.24 0.22 0.22 0.20 0.18 0.17 0.17 0.21 0.19 0.15 0.18 0.14 0.09 0.08 0.16 0.21 0.22 0.20 0.24 0.21 0.18 0.23 0.23 0.17 0.41 0.43 0.46 0.49 0.51 0.65 0.70 0.72
0.47 0.45 0.58 0.46 0.25 0.27 0.27 0.30 0.28 0.26 0.26 0.26 0.25 0.25 0.24 0.21 0.17 0.18 0.19 0.23 0.21 0.18 0.16 0.17 0.12 0.07 0.06 0.11 0.14 0.18 0.23 0.28 0.33 0.31 0.24 0.21 0.19 0.38 0.47 0.49 0.54 0.56 0.62 0.69 0.71
0.42 0.36 0.41 0.38 0.40 0.26 0.27 0.25 0.24 0.29 0.28 0.28 0.25 0.25 0.22 0.20 0.20 0.19 0.19 0.21 0.21 0.19 0.21 0.19 0.13 0.08 0.05 0.08 0.14 0.16 0.21 0.29 0.30 0.24 0.23 0.24 0.26 0.38 0.41 0.45 0.54 0.57 0.62 0.64 0.69
0.45 0.36 0.36 0.23 0.30 0.32 0.30 0.24 0.24 0.25 0.29 0.28 0.25 0.24 0.22 0.19 0.18 0.17 0.18 0.18 0.18 0.19 0.16 0.12 0.07 0.10 0.09 0.12 0.18 0.20 0.23 0.28 0.28 0.30 0.24 0.25 0.29 0.37 0.42 0.47 0.56 0.60 0.63 0.63 0.66
0.36 0.37 0.40 0.34 0.31 0.28 0.28 0.27 0.26 0.26 0.26 0.26 0.25 0.24 0.22 0.18 0.17 0.15 0.16 0.15 0.12 0.14 0.12 0.12 0.06 0.12 0.09 0.15 0.20 0.20 0.28 0.27 0.29 0.32 0.30 0.30 0.30 0.43 0.52 0.56 0.56 0.56 0.58 0.57 0.62
0.46 0.43 0.36 0.32 0.27 0.26 0.28 0.28 0.28 0.29 0.30 0.29 0.25 0.22 0.20 0.21 0.21 0.20 0.19 0.17 0.14 0.12 0.10 0.11 0.13 0.13 0.09 0.17 0.19 0.21 0.24 0.25 0.27 0.33 0.32 0.26 0.33 0.44 0.44 0.48 0.49 0.50 0.52 0.54 0.59

GFSSW_prec_pwat_132.txt.gz
Precipitable_Water
0.79 0.75 0.73 0.69 0.64 0.60 0.58 0.54 0.51 0.47 0.46 0.44 0.42 0.41 0.39 0.37 0.42 0.37 0.19 0.23 0.22 0.25 0.26 0.26 0.27 0.31 0.30 0.32 0.39 0.42 0.28 0.24 0.26 0.28 0.30 0.38 0.34 0.40 0.43 0.39 0.43 0.42 0.41 0.44 0.58
0.81 0.77 0.74 0.72 0.68 0.61 0.56 0.51 0.47 0.47 0.47 0.45 0.43 0.42 0.42 0.41 0.36 0.30 0.34 0.35 0.35 0.34 0.21 0.19 0.20 0.25 0.24 0.26 0.29 0.29 0.25 0.25 0.34 0.33 0.28 0.29 0.27 0.28 0.29 0.32 0.36 0.39 0.42 0.44 0.54
0.87 0.82 0.77 0.73 0.70 0.66 0.58 0.50 0.46 0.45 0.46 0.45 0.44 0.42 0.43 0.47 0.33 0.33 0.41 0.39 0.37 0.41 0.30 0.26 0.24 0.21 0.20 0.22 0.25 0.26 0.19 0.24 0.24 0.24 0.23 0.21 0.20 0.23 0.22 0.23 0.29 0.32 0.37 0.38 0.42
0.94 0.87 0.82 0.77 0.74 0.67 0.61 0.52 0.47 0.43 0.43 0.44 0.44 0.43 0.47 0.43 0.24 0.37 0.41 0.42 0.41 0.39 0.30 0.25 0.23 0.17 0.16 0.16 0.21 0.17 0.20 0.19 0.19 0.19 0.17 0.15 0.16 0.14 0.15 0.16 0.22 0.28 0.33 0.37 0.42
1.02 0.94 0.86 0.79 0.73 0.71 0.62 0.54 0.50 0.46 0.44 0.42 0.44 0.46 0.44 0.32 0.30 0.38 0.38 0.37 0.33 0.31 0.26 0.22 0.20 0.19 0.15 0.17 0.17 0.14 0.14 0.15 0.15 0.14 0.12 0.12 0.10 0.10 0.10 0.12 0.15 0.18 0.23 0.30 0.36
1.07 0.98 0.93 0.85 0.77 0.71 0.69 0.56 0.51 0.51 0.49 0.47 0.49 0.51 0.37 0.25 0.40 0.41 0.37 0.34 0.30 0.25 0.21 0.21 0.20 0.20 0.15 0.15 0.14 0.16 0.16 0.16 0.16 0.13 0.12 0.11 0.09 0.10 0.09 0.11 0.10 0.11 0.13 0.18 0.27
1.10 0.98 0.93 0.84 0.77 0.74 0.66 0.60 0.52 0.52 0.52 0.48 0.53 0.52 0.35 0.29 0.43 0.41 0.38 0.33 0.32 0.26 0.21 0.23 0.23 0.20 0.19 0.16 0.21 0.19 0.14 0.13 0.12 0.13 0.12 0.12 0.08 0.08 0.11 0.12 0.11 0.10 0.11 0.12 0.15
1.12 0.99 0.85 0.76 0.73 0.72 0.66 0.59 0.55 0.53 0.53 0.50 0.62 0.63 0.36 0.51 0.48 0.37 0.35 0.30 0.29 0.28 0.25 0.25 0.25 0.23 0.22 0.22 0.18 0.13 0.14 0.09 0.12 0.13 0.13 0.12 0.07 0.10 0.12 0.11 0.09 0.10 0.10 0.09 0.10
1.05 0.97 0.86 0.76 0.68 0.67 0.63 0.61 0.57 0.54 0.54 0.56 0.57 0.50 0.41 0.60 0.46 0.39 0.35 0.28 0.27 0.28 0.27 0.28 0.26 0.22 0.21 0.15 0.12 0.14 0.09 0.10 0.11 0.15 0.13 0.11 0.07 0.07 0.10 0.10 0.08 0.09 0.09 0.09 0.08
1.06 0.96 0.86 0.72 0.69 0.69 0.64 0.68 0.58 0.51 0.55 0.56 0.58 0.49 0.47 0.40 0.40 0.35 0.34 0.30 0.25 0.25 0.22 0.22 0.22 0.19 0.18 0.14 0.09 0.11 0.11 0.11 0.10 0.12 0.11 0.09 0.08 0.09 0.10 0.15 0.13 0.12 0.10 0.10 0.09
1.06 0.97 0.88 0.71 0.72 0.68 0.69 0.70 0.56 0.42 0.46 0.39 0.43 0.39 0.38 0.40 0.37 0.32 0.33 0.30 0.27 0.24 0.19 0.21 0.17 0.14 0.16 0.17 0.17 0.15 0.12 0.09 0.10 0.11 0.12 0.11 0.10 0.09 0.10 0.12 0.14 0.16 0.16 0.15 0.14
1.11 0.97 0.86 0.76 0.68 0.73 0.78 0.63 0.61 0.56 0.35 0.41 0.39 0.40 0.39 0.35 0.27 0.27 0.29 0.22 0.21 0.17 0.19 0.17 0.15 0.19 0.20 0.18 0.15 0.13 0.10 0.09 0.11 0.13 0.12 0.09 0.07 0.08 0.11 0.14 0.18 0.18 0.18 0.18 0.18
1.11 0.99 0.89 0.77 0.63 0.71 0.73 0.64 0.63 0.47 0.28 0.31 0.35 0.37 0.34 0.32 0.26 0.25 0.27 0.24 0.21 0.19 0.18 0.16 0.19 0.22 0.18 0.15 0.13 0.11 0.10 0.10 0.09 0.10 0.12 0.12 0.07 0.09 0.11 0.16 0.20 0.20 0.20 0.21 0.21
1.10 1.00 0.94 0.74 0.66 0.71 0.66 0.64 0.54 0.48 0.24 0.22 0.30 0.32 0.32 0.29 0.24 0.28 0.29 0.23 0.20 0.18 0.20 0.19 0.23 0.19 0.15 0.14 0.14 0.09 0.13 0.12 0.09 0.09 0.06 0.15 0.06 0.10 0.12 0.16 0.20 0.26 0.31 0.24 0.23
1.06 1.01 0.91 0.85 0.68 0.64 0.66 0.61 0.50 0.35 0.15 0.26 0.27 0.35 0.30 0.25 0.27 0.27 0.29 0.24 0.20 0.19 0.18 0.18 0.18 0.15 0.14 0.14 0.15 0.11 0.13 0.10 0.10 0.10 0.12 0.12 0.12 0.10 0.17 0.18 0.21 0.37 0.50 0.46 0.29
1.05 1.06 1.00 0.89 0.77 0.67 0.67 0.49 0.38 0.20 0.16 0.24 0.26 0.25 0.25 0.25 0.27 0.30 0.28 0.28 0.27 0.21 0.21 0.19 0.22 0.20 0.17 0.17 0.15 0.15 0.12 0.11 0.13 0.12 0.06 0.11 0.14 0.09 0.17 0.23 0.27 0.44 0.54 0.52 0.46
1.00 1.03 0.94 0.87 0.76 0.78 0.62 0.39 0.24 0.19 0.24 0.21 0.23 0.25 0.23 0.22 0.23 0.24 0.23 0.22 0.18 0.15 0.15 0.18 0.18 0.21 0.20 0.13 0.16 0.14 0.11 0.06 0.05 0.06 0.06 0.12 0.12 0.13 0.23 0.27 0.38 0.45 0.54 0.53 0.59
1.04 0.96 0.86 0.78 0.78 0.70 0.49 0.32 0.22 0.23 0.24 0.24 0.23 0.23 0.20 0.23 0.24 0.23 0.22 0.19 0.23 0.20 0.17 0.14 0.12 0.17 0.18 0.13 0.12 0.15 0.16 0.09 0.06 0.07 0.08 0.12 0.11 0.16 0.27 0.37 0.43 0.52 0.55 0.67 0.71
0.98 0.82 0.70 0.71 0.75 0.61 0.41 0.23 0.25 0.26 0.23 0.23 0.23 0.20 0.20 0.22 0.22 0.22 0.22 0.21 0.21 0.22 0.15 0.15 0.13 0.19 0.17 0.15 0.16 0.13 0.14 0.20 0.14 0.15 0.13 0.12 0.16 0.24 0.35 0.40 0.48 0.52 0.56 0.60 0.72
0.83 0.74 0.70 0.83 0.77 0.60 0.40 0.30 0.28 0.29 0.26 0.25 0.20 0.21 0.19 0.22 0.21 0.21 0.21 0.23 0.22 0.25 0.24 0.19 0.11 0.16 0.14 0.17 0.20 0.19 0.20 0.14 0.17 0.10 0.09 0.11 0.16 0.20 0.28 0.35 0.44 0.52 0.57 0.62 0.66
0.71 0.54 0.72 0.82 0.72 0.49 0.33 0.30 0.30 0.28 0.27 0.26 0.25 0.22 0.22 0.21 0.21 0.21 0.20 0.23 0.24 0.24 0.23 0.19 0.14 0.12 0.13 0.13 0.14 0.16 0.16 0.18 0.20 0.18 0.14 0.12 0.14 0.31 0.33 0.40 0.45 0.53 0.60 0.63 0.62
0.67 0.49 0.73 0.73 0.43 0.42 0.32 0.28 0.30 0.27 0.31 0.29 0.29 0.26 0.24 0.24 0.21 0.20 0.20 0.22 0.26 0.24 0.18 0.20 0.15 0.10 0.08 0.15 0.18 0.18 0.17 0.19 0.16 0.15 0.21 0.21 0.16 0.36 0.36 0.44 0.52 0.56 0.59 0.62 0.65
0.56 0.57 0.72 0.63 0.35 0.37 0.35 0.31 0.29 0.27 0.27 0.29 0.27 0.28 0.28 0.24 0.21 0.24 0.23 0.26 0.25 0.22 0.19 0.19 0.14 0.07 0.06 0.12 0.15 0.12 0.17 0.21 0.24 0.26 0.20 0.17 0.17 0.33 0.40 0.46 0.54 0.55 0.57 0.60 0.63
0.56 0.42 0.50 0.53 0.49 0.37 0.32 0.28 0.26 0.29 0.28 0.30 0.28 0.28 0.27 0.25 0.25 0.22 0.22 0.24 0.25 0.25 0.24 0.20 0.13 0.08 0.04 0.05 0.09 0.10 0.16 0.20 0.25 0.19 0.21 0.22 0.24 0.30 0.35 0.43 0.52 0.54 0.57 0.57 0.59
0.54 0.44 0.47 0.35 0.36 0.34 0.30 0.28 0.25 0.25 0.31 0.29 0.26 0.25 0.24 0.21 0.23 0.21 0.22 0.22 0.23 0.26 0.20 0.15 0.08 0.09 0.09 0.09 0.11 0.14 0.16 0.22 0.22 0.24 0.21 0.24 0.26 0.33 0.38 0.43 0.49 0.54 0.55 0.55 0.56
0.47 0.43 0.41 0.32 0.35 0.30 0.29 0.27 0.25 0.27 0.28 0.27 0.25 0.27 0.26 0.24 0.23 0.19 0.20 0.20 0.18 0.19 0.15 0.13 0.06 0.10 0.08 0.11 0.16 0.15 0.20 0.23 0.24 0.26 0.25 0.28 0.27 0.39 0.45 0.48 0.50 0.50 0.51 0.52 0.53
0.54 0.50 0.36 0.33 0.34 0.30 0.29 0.28 0.28 0.28 0.30 0.30 0.28 0.27 0.26 0.26 0.26 0.24 0.23 0.21 0.19 0.15 0.12 0.10 0.10 0.12 0.08 0.16 0.16 0.13 0.20 0.23 0.22 0.27 0.28 0.24 0.31 0.39 0.40 0.43 0.45 0.48 0.49 0.50 0.52

GFSSW_prec_pwat_135.txt.gz
Precipitable_Water
0.84 0.80 0.76 0.72 0.67 0.62 0.59 0.55 0.51 0.47 0.44 0.42 0.42 0.42 0.42 0.43 0.48 0.40 0.26 0.29 0.30 0.31 0.27 0.23 0.25 0.32 0.32 0.32 0.39 0.43 0.27 0.21 0.24 0.25 0.27 0.36 0.31 0.35 0.35 0.33 0.35 0.38 0.39 0.38 0.41
0.90 0.86 0.81 0.77 0.71 0.65 0.61 0.56 0.52 0.49 0.46 0.42 0.40 0.41 0.42 0.46 0.40 0.33 0.38 0.40 0.41 0.41 0.27 0.21 0.19 0.23 0.23 0.26 0.30 0.29 0.23 0.23 0.31 0.32 0.27 0.26 0.24 0.24 0.24 0.24 0.27 0.30 0.32 0.37 0.37
1.00 0.94 0.87 0.80 0.76 0.70 0.63 0.57 0.52 0.50 0.48 0.45 0.41 0.41 0.44 0.49 0.34 0.33 0.44 0.46 0.46 0.41 0.33 0.28 0.25 0.20 0.20 0.22 0.25 0.26 0.19 0.25 0.24 0.24 0.23 0.19 0.16 0.17 0.15 0.13 0.16 0.19 0.25 0.30 0.35
1.11 1.03 0.95 0.87 0.81 0.74 0.68 0.62 0.55 0.51 0.50 0.47 0.43 0.44 0.45 0.40 0.22 0.38 0.42 0.41 0.40 0.41 0.35 0.29 0.25 0.19 0.17 0.17 0.23 0.18 0.21 0.20 0.19 0.18 0.16 0.13 0.13 0.11 0.11 0.12 0.16 0.17 0.18 0.22 0.26
1.17 1.09 1.04 0.95 0.88 0.80 0.73 0.67 0.60 0.55 0.52 0.49 0.46 0.47 0.39 0.27 0.28 0.37 0.39 0.39 0.36 0.33 0.30 0.28 0.22 0.21 0.18 0.19 0.20 0.17 0.17 0.17 0.17 0.15 0.15 0.16 0.13 0.13 0.10 0.13 0.14 0.13 0.12 0.12 0.15
1.26 1.17 1.09 1.00 0.94 0.85 0.76 0.68 0.63 0.58 0.57 0.54 0.52 0.54 0.35 0.26 0.37 0.38 0.39 0.39 0.35 0.30 0.26 0.25 0.23 0.22 0.19 0.18 0.16 0.19 0.18 0.18 0.17 0.16 0.16 0.14 0.12 0.12 0.12 0.14 0.12 0.10 0.09 0.09 0.10
1.28 1.23 1.14 1.02 0.96 0.85 0.74 0.67 0.60 0.61 0.58 0.57 0.57 0.57 0.39 0.30 0.40 0.41 0.40 0.39 0.36 0.31 0.26 0.26 0.26 0.22 0.21 0.19 0.23 0.21 0.16 0.17 0.17 0.17 0.14 0.15 0.11 0.11 0.14 0.13 0.10 0.10 0.11 0.12 0.12
1.26 1.22 1.16 1.06 0.97 0.84 0.67 0.58 0.58 0.62 0.62 0.59 0.61 0.56 0.38 0.55 0.50 0.41 0.41 0.37 0.36 0.32 0.28 0.28 0.29 0.25 0.24 0.25 0.21 0.17 0.17 0.12 0.15 0.15 0.15 0.13 0.08 0.11 0.11 0.10 0.09 0.10 0.12 0.12 0.12
1.23 1.23 1.14 1.05 0.97 0.80 0.63 0.58 0.60 0.65 0.69 0.61 0.53 0.46 0.34 0.52 0.43 0.45 0.46 0.39 0.37 0.33 0.31 0.30 0.28 0.25 0.23 0.18 0.15 0.16 0.12 0.13 0.14 0.16 0.14 0.11 0.08 0.10 0.11 0.11 0.10 0.12 0.13 0.14 0.13
1.24 1.17 1.14 1.05 0.96 0.74 0.61 0.62 0.65 0.68 0.72 0.67 0.58 0.41 0.41 0.41 0.46 0.43 0.38 0.36 0.31 0.30 0.27 0.26 0.24 0.20 0.19 0.16 0.13 0.14 0.15 0.15 0.12 0.12 0.12 0.11 0.09 0.09 0.12 0.14 0.13 0.15 0.17 0.18 0.18
1.26 1.16 1.17 1.05 0.95 0.73 0.64 0.59 0.52 0.61 0.68 0.48 0.38 0.38 0.42 0.45 0.44 0.36 0.37 0.31 0.27 0.24 0.19 0.22 0.18 0.18 0.20 0.20 0.19 0.17 0.14 0.12 0.11 0.14 0.13 0.10 0.09 0.09 0.11 0.14 0.14 0.17 0.19 0.21 0.25
1.21 1.25 1.18 1.04 0.88 0.75 0.69 0.50 0.57 0.64 0.50 0.51 0.47 0.41 0.41 0.42 0.33 0.32 0.34 0.25 0.23 0.19 0.21 0.20 0.17 0.21 0.22 0.21 0.18 0.14 0.12 0.11 0.13 0.14 0.12 0.10 0.08 0.11 0.10 0.12 0.17 0.19 0.21 0.29 0.31
1.21 1.27 1.25 1.05 0.80 0.81 0.62 0.53 0.71 0.74 0.46 0.42 0.42 0.35 0.35 0.37 0.32 0.29 0.28 0.24 0.21 0.19 0.19 0.17 0.20 0.23 0.21 0.19 0.15 0.13 0.12 0.12 0.11 0.13 0.13 0.12 0.08 0.10 0.11 0.15 0.18 0.21 0.30 0.34 0.37
1.17 1.17 1.16 1.06 0.69 0.75 0.65 0.68 0.71 0.59 0.30 0.26 0.33 0.32 0.31 0.31 0.28 0.31 0.30 0.25 0.22 0.20 0.22 0.21 0.24 0.21 0.19 0.16 0.16 0.12 0.15 0.13 0.12 0.11 0.08 0.14 0.05 0.08 0.10 0.14 0.18 0.22 0.32 0.37 0.40
1.04 1.13 1.10 1.05 0.83 0.77 0.73 0.80 0.68 0.44 0.21 0.24 0.22 0.30 0.29 0.24 0.25 0.26 0.31 0.25 0.21 0.21 0.20 0.19 0.21 0.19 0.16 0.16 0.18 0.13 0.16 0.13 0.13 0.12 0.12 0.12 0.09 0.08 0.13 0.16 0.19 0.31 0.37 0.44 0.52
0.97 0.93 1.01 1.00 0.96 0.85 0.85 0.73 0.56 0.27 0.17 0.23 0.24 0.23 0.22 0.22 0.22 0.25 0.26 0.29 0.28 0.21 0.21 0.22 0.25 0.21 0.19 0.19 0.18 0.19 0.16 0.14 0.15 0.15 0.08 0.10 0.11 0.08 0.15 0.24 0.31 0.35 0.41 0.53 0.61
0.86 0.79 0.93 1.00 0.84 0.91 0.83 0.61 0.29 0.23 0.24 0.21 0.23 0.25 0.23 0.21 0.22 0.23 0.22 0.21 0.20 0.19 0.19 0.20 0.21 0.24 0.23 0.17 0.18 0.18 0.13 0.07 0.07 0.07 0.05 0.11 0.11 0.12 0.23 0.32 0.36 0.37 0.47 0.57 0.68
0.88 0.86 0.86 0.95 0.98 0.93 0.79 0.44 0.28 0.30 0.26 0.27 0.27 0.26 0.21 0.21 0.21 0.21 0.22 0.22 0.23 0.18 0.18 0.15 0.14 0.21 0.22 0.17 0.14 0.16 0.16 0.09 0.05 0.06 0.07 0.12 0.09 0.13 0.26 0.33 0.38 0.46 0.58 0.60 0.62
0.80 0.72 0.76 0.89 0.90 0.87 0.62 0.33 0.36 0.35 0.33 0.29 0.28 0.25 0.23 0.22 0.21 0.21 0.21 0.20 0.21 0.21 0.15 0.16 0.16 0.23 0.21 0.19 0.19 0.16 0.14 0.19 0.14 0.15 0.11 0.10 0.13 0.18 0.26 0.29 0.36 0.46 0.54 0.53 0.59
0.63 0.60 0.63 0.78 0.87 0.75 0.49 0.38 0.36 0.39 0.33 0.30 0.25 0.25 0.22 0.22 0.21 0.21 0.20 0.23 0.23 0.25 0.25 0.20 0.14 0.20 0.18 0.21 0.22 0.19 0.20 0.13 0.16 0.09 0.07 0.10 0.12 0.15 0.21 0.25 0.37 0.45 0.50 0.54 0.57
0.60 0.50 0.64 0.78 0.78 0.57 0.38 0.38 0.38 0.38 0.31 0.27 0.27 0.24 0.24 0.22 0.21 0.21 0.21 0.25 0.27 0.26 0.25 0.21 0.15 0.16 0.17 0.15 0.16 0.17 0.15 0.17 0.19 0.17 0.12 0.10 0.11 0.26 0.27 0.31 0.38 0.47 0.52 0.54 0.55
0.56 0.42 0.65 0.73 0.43 0.47 0.44 0.41 0.40 0.33 0.36 0.31 0.31 0.28 0.24 0.24 0.21 0.21 0.21 0.24 0.30 0.27 0.21 0.22 0.17 0.12 0.12 0.18 0.20 0.19 0.16 0.18 0.14 0.14 0.18 0.17 0.14 0.30 0.32 0.37 0.44 0.48 0.51 0.55 0.56
0.50 0.49 0.63 0.59 0.33 0.39 0.48 0.44 0.43 0.37 0.31 0.31 0.30 0.29 0.30 0.26 0.21 0.23 0.23 0.28 0.28 0.25 0.21 0.22 0.16 0.10 0.11 0.15 0.18 0.15 0.15 0.18 0.20 0.22 0.17 0.14 0.13 0.29 0.34 0.39 0.46 0.46 0.50 0.53 0.55
0.53 0.36 0.45 0.47 0.49 0.44 0.42 0.39 0.37 0.40 0.33 0.31 0.30 0.31 0.28 0.25 0.28 0.24 0.24 0.27 0.30 0.30 0.28 0.24 0.17 0.11 0.07 0.07 0.10 0.09 0.12 0.17 0.20 0.16 0.17 0.17 0.17 0.25 0.31 0.38 0.42 0.44 0.49 0.52 0.54
0.53 0.40 0.40 0.29 0.41 0.41 0.41 0.38 0.34 0.32 0.33 0.30 0.28 0.28 0.27 0.24 0.24 0.23 0.27 0.28 0.31 0.31 0.26 0.21 0.13 0.12 0.11 0.10 0.11 0.10 0.12 0.16 0.19 0.19 0.16 0.18 0.19 0.26 0.33 0.38 0.42 0.45 0.48 0.49 0.52
0.45 0.42 0.42 0.42 0.45 0.43 0.42 0.37 0.32 0.30 0.30 0.28 0.28 0.30 0.28 0.23 0.24 0.24 0.25 0.27 0.25 0.28 0.22 0.18 0.10 0.11 0.09 0.12 0.14 0.13 0.15 0.19 0.21 0.21 0.21 0.21 0.21 0.33 0.38 0.42 0.42 0.43 0.45 0.45 0.49
0.59 0.59 0.52 0.46 0.44 0.42 0.39 0.35 0.31 0.31 0.32 0.29 0.29 0.28 0.25 0.25 0.28 0.32 0.33 0.29 0.26 0.21 0.17 0.13 0.11 0.12 0.10 0.17 0.16 0.11 0.15 0.20 0.20 0.21 0.23 0.19 0.25 0.34 0.35 0.38 0.40 0.41 0.43 0.43 0.44

GFSSW_prec_pwat_138.txt.gz
Precipitable_Water
0.94 0.88 0.83 0.79 0.72 0.65 0.60 0.54 0.49 0.46 0.45 0.46 0.45 0.44 0.43 0.44 0.47 0.39 0.29 0.32 0.37 0.39 0.34 0.27 0.30 0.31 0.33 0.32 0.37 0.39 0.25 0.22 0.26 0.26 0.29 0.36 0.27 0.30 0.30 0.29 0.30 0.32 0.34 0.33 0.39
1.03 0.96 0.90 0.86 0.79 0.72 0.66 0.59 0.51 0.48 0.46 0.45 0.45 0.45 0.44 0.48 0.40 0.31 0.37 0.40 0.42 0.44 0.36 0.28 0.24 0.26 0.26 0.27 0.30 0.27 0.22 0.23 0.30 0.31 0.26 0.24 0.21 0.20 0.19 0.19 0.19 0.21 0.25 0.27 0.30
1.12 1.05 0.99 0.93 0.85 0.77 0.70 0.65 0.58 0.53 0.49 0.49 0.47 0.46 0.47 0.49 0.35 0.33 0.43 0.44 0.46 0.44 0.38 0.35 0.29 0.23 0.23 0.24 0.27 0.27 0.20 0.27 0.25 0.23 0.22 0.18 0.16 0.16 0.14 0.12 0.15 0.15 0.17 0.20 0.22
1.21 1.15 1.08 1.02 0.95 0.85 0.76 0.68 0.62 0.57 0.53 0.50 0.50 0.51 0.49 0.46 0.23 0.37 0.39 0.39 0.38 0.36 0.35 0.33 0.32 0.25 0.21 0.20 0.24 0.20 0.23 0.22 0.20 0.20 0.16 0.14 0.15 0.13 0.13 0.13 0.16 0.16 0.16 0.15 0.15
1.29 1.25 1.16 1.10 1.03 0.93 0.82 0.74 0.67 0.62 0.60 0.58 0.55 0.56 0.48 0.35 0.30 0.36 0.36 0.36 0.36 0.34 0.32 0.31 0.29 0.27 0.22 0.23 0.22 0.19 0.21 0.19 0.19 0.18 0.18 0.18 0.16 0.15 0.13 0.15 0.17 0.16 0.14 0.12 0.12
1.30 1.28 1.26 1.19 1.12 1.00 0.87 0.78 0.70 0.65 0.64 0.63 0.60 0.60 0.46 0.33 0.40 0.41 0.39 0.37 0.34 0.33 0.30 0.30 0.28 0.26 0.23 0.21 0.19 0.21 0.20 0.20 0.21 0.20 0.19 0.17 0.16 0.16 0.16 0.17 0.15 0.13 0.12 0.12 0.14
1.32 1.29 1.26 1.23 1.16 1.06 0.90 0.79 0.72 0.67 0.65 0.63 0.60 0.59 0.45 0.40 0.45 0.43 0.40 0.38 0.37 0.36 0.31 0.31 0.29 0.24 0.23 0.21 0.24 0.22 0.18 0.19 0.19 0.20 0.18 0.19 0.14 0.14 0.16 0.15 0.12 0.12 0.13 0.14 0.17
1.36 1.34 1.23 1.23 1.18 1.08 0.93 0.78 0.71 0.67 0.62 0.61 0.66 0.59 0.39 0.52 0.51 0.45 0.42 0.39 0.40 0.40 0.38 0.36 0.34 0.29 0.26 0.26 0.23 0.19 0.18 0.15 0.20 0.19 0.18 0.16 0.12 0.15 0.15 0.13 0.12 0.14 0.14 0.16 0.18
1.41 1.35 1.31 1.26 1.17 1.07 0.93 0.78 0.71 0.70 0.62 0.59 0.64 0.57 0.40 0.54 0.44 0.43 0.43 0.38 0.40 0.41 0.40 0.38 0.35 0.29 0.26 0.20 0.18 0.18 0.13 0.15 0.15 0.18 0.16 0.15 0.13 0.14 0.14 0.13 0.13 0.15 0.17 0.18 0.18
1.25 1.32 1.31 1.29 1.18 1.04 0.88 0.77 0.73 0.68 0.61 0.60 0.69 0.54 0.48 0.44 0.44 0.42 0.44 0.42 0.37 0.36 0.33 0.31 0.29 0.24 0.21 0.18 0.13 0.15 0.16 0.17 0.15 0.15 0.16 0.13 0.13 0.13 0.12 0.14 0.16 0.18 0.19 0.20 0.24
1.15 1.30 1.28 1.28 1.19 1.04 0.81 0.73 0.65 0.55 0.58 0.52 0.51 0.46 0.43 0.44 0.44 0.42 0.42 0.36 0.36 0.32 0.24 0.26 0.20 0.17 0.21 0.19 0.19 0.19 0.16 0.14 0.14 0.16 0.15 0.12 0.12 0.13 0.14 0.16 0.17 0.20 0.23 0.25 0.33
1.09 1.17 1.22 1.31 1.25 1.06 0.78 0.65 0.67 0.59 0.46 0.53 0.53 0.54 0.49 0.42 0.35 0.37 0.38 0.32 0.30 0.24 0.24 0.21 0.17 0.22 0.21 0.21 0.19 0.16 0.14 0.14 0.15 0.16 0.15 0.14 0.13 0.15 0.16 0.17 0.21 0.23 0.28 0.36 0.38
0.95 1.04 1.13 1.18 1.14 1.06 0.85 0.75 0.81 0.69 0.49 0.48 0.57 0.54 0.46 0.41 0.33 0.32 0.35 0.30 0.24 0.21 0.20 0.18 0.24 0.24 0.21 0.19 0.16 0.16 0.14 0.14 0.13 0.15 0.16 0.15 0.11 0.14 0.17 0.19 0.24 0.32 0.36 0.38 0.41
0.86 0.86 1.02 1.06 0.94 0.99 0.86 0.85 0.79 0.70 0.48 0.34 0.32 0.37 0.42 0.34 0.26 0.31 0.33 0.30 0.25 0.22 0.20 0.21 0.23 0.20 0.20 0.18 0.17 0.14 0.17 0.15 0.15 0.14 0.11 0.15 0.08 0.12 0.15 0.20 0.28 0.31 0.32 0.38 0.46
0.76 0.89 0.82 1.06 0.90 0.87 0.93 1.02 0.80 0.57 0.30 0.33 0.27 0.34 0.30 0.25 0.23 0.24 0.28 0.26 0.22 0.21 0.20 0.22 0.20 0.18 0.17 0.17 0.18 0.16 0.17 0.17 0.17 0.15 0.14 0.15 0.10 0.11 0.16 0.20 0.22 0.26 0.32 0.42 0.50
0.72 0.87 0.80 0.85 0.89 0.81 0.93 0.92 0.78 0.43 0.32 0.33 0.27 0.24 0.22 0.22 0.22 0.26 0.25 0.28 0.26 0.21 0.20 0.21 0.25 0.21 0.20 0.20 0.19 0.19 0.19 0.19 0.19 0.17 0.11 0.12 0.10 0.10 0.16 0.20 0.23 0.28 0.39 0.46 0.48
0.70 0.82 0.77 0.78 0.72 0.91 0.95 0.75 0.42 0.32 0.44 0.34 0.26 0.26 0.23 0.21 0.21 0.22 0.23 0.22 0.19 0.16 0.16 0.18 0.19 0.22 0.23 0.18 0.20 0.21 0.18 0.13 0.11 0.11 0.09 0.13 0.11 0.12 0.22 0.26 0.29 0.34 0.42 0.46 0.50
0.65 0.79 0.77 0.81 0.83 0.91 0.76 0.56 0.33 0.42 0.40 0.37 0.31 0.28 0.24 0.23 0.22 0.23 0.22 0.21 0.23 0.19 0.17 0.15 0.16 0.21 0.22 0.18 0.16 0.19 0.18 0.13 0.09 0.08 0.09 0.13 0.11 0.15 0.25 0.30 0.36 0.42 0.45 0.48 0.49
0.61 0.69 0.67 0.72 0.81 0.78 0.59 0.37 0.34 0.45 0.43 0.36 0.32 0.26 0.25 0.25 0.25 0.25 0.23 0.23 0.22 0.21 0.18 0.17 0.17 0.22 0.22 0.22 0.21 0.21 0.18 0.20 0.14 0.15 0.12 0.13 0.15 0.18 0.27 0.27 0.32 0.37 0.42 0.46 0.49
0.51 0.51 0.54 0.74 0.79 0.64 0.51 0.38 0.46 0.51 0.46 0.40 0.34 0.33 0.28 0.27 0.27 0.27 0.26 0.27 0.23 0.24 0.24 0.19 0.16 0.21 0.22 0.24 0.24 0.23 0.22 0.18 0.19 0.11 0.09 0.10 0.11 0.15 0.19 0.24 0.30 0.34 0.39 0.45 0.51
0.50 0.37 0.53 0.74 0.72 0.51 0.37 0.37 0.46 0.51 0.46 0.41 0.38 0.34 0.33 0.29 0.28 0.27 0.24 0.25 0.26 0.23 0.23 0.20 0.19 0.20 0.22 0.19 0.20 0.20 0.19 0.18 0.18 0.16 0.11 0.09 0.12 0.24 0.24 0.28 0.29 0.35 0.41 0.44 0.49
0.44 0.28 0.55 0.64 0.41 0.41 0.41 0.42 0.47 0.46 0.41 0.40 0.40 0.37 0.33 0.31 0.28 0.28 0.26 0.25 0.28 0.24 0.20 0.22 0.19 0.17 0.18 0.20 0.22 0.22 0.19 0.19 0.14 0.16 0.17 0.15 0.14 0.30 0.29 0.31 0.35 0.38 0.42 0.45 0.49
0.36 0.36 0.57 0.53 0.33 0.32 0.41 0.40 0.46 0.42 0.36 0.35 0.33 0.35 0.35 0.30 0.27 0.29 0.28 0.31 0.28 0.25 0.22 0.21 0.19 0.15 0.15 0.18 0.23 0.18 0.19 0.17 0.19 0.19 0.14 0.13 0.13 0.26 0.28 0.31 0.37 0.37 0.42 0.44 0.47
0.39 0.26 0.38 0.42 0.47 0.36 0.35 0.34 0.35 0.45 0.38 0.37 0.35 0.35 0.32 0.29 0.31 0.27 0.26 0.29 0.31 0.28 0.27 0.23 0.18 0.16 0.15 0.17 0.17 0.14 0.15 0.16 0.17 0.15 0.15 0.15 0.17 0.22 0.26 0.29 0.34 0.38 0.41 0.43 0.45
0.39 0.30 0.30 0.22 0.33 0.36 0.37 0.36 0.32 0.30 0.36 0.36 0.32 0.32 0.33 0.29 0.28 0.27 0.28 0.28 0.31 0.31 0.27 0.25 0.20 0.19 0.16 0.14 0.12 0.11 0.12 0.14 0.15 0.17 0.15 0.15 0.17 0.22 0.27 0.30 0.34 0.37 0.40 0.40 0.42
0.31 0.27 0.33 0.30 0.40 0.38 0.37 0.33 0.32 0.36 0.33 0.34 0.34 0.33 0.32 0.29 0.30 0.30 0.29 0.28 0.27 0.30 0.27 0.27 0.19 0.17 0.12 0.12 0.11 0.10 0.12 0.16 0.17 0.20 0.20 0.20 0.19 0.30 0.32 0.33 0.34 0.36 0.37 0.38 0.40
0.49 0.44 0.36 0.36 0.38 0.36 0.33 0.33 0.32 0.37 0.39 0.42 0.36 0.34 0.31 0.33 0.35 0.33 0.31 0.31 0.30 0.27 0.26 0.23 0.18 0.13 0.13 0.16 0.17 0.14 0.14 0.17 0.19 0.21 0.21 0.16 0.23 0.29 0.29 0.28 0.33 0.35 0.37 0.37 0.39